TimeEDT,TemperatureF,Dew PointF,Humidity,Sea Level PressureIn,VisibilityMPH,Wind Direction,Wind SpeedMPH,Gust SpeedMPH,PrecipitationIn,Events,Conditions,WindDirDegrees,DateUTC
12:44 AM,46.4,46.4,100,30.10,10.0,NE,3.5,-,N/A,,Overcast,50,2013-10-11 04:44:00
12:54 AM,46.9,46.0,97,30.10,10.0,NE,4.6,-,N/A,,Overcast,40,2013-10-11 04:54:00
1:54 AM,46.9,46.0,97,30.09,3.0,NE,6.9,-,0.00,,Overcast,50,2013-10-11 05:54:00
2:38 AM,46.4,46.4,100,30.07,2.5,NE,5.8,-,0.00,Rain,Light Rain,50,2013-10-11 06:38:00
2:50 AM,46.4,46.4,100,30.07,1.0,NE,6.9,-,0.00,,Mist,40,2013-10-11 06:50:00
2:54 AM,46.9,46.9,100,30.08,0.8,NE,5.8,-,0.00,,Mist,50,2013-10-11 06:54:00
3:05 AM,46.4,46.4,100,30.06,1.5,ENE,5.8,-,0.00,Rain,Light Rain,60,2013-10-11 07:05:00
3:33 AM,46.4,46.4,100,30.06,0.8,ENE,5.8,-,0.02,Rain,Light Rain,70,2013-10-11 07:33:00
3:42 AM,46.4,46.4,100,30.06,1.2,ENE,5.8,-,0.03,Rain,Light Rain,60,2013-10-11 07:42:00
3:54 AM,46.9,46.9,100,30.07,1.2,NE,5.8,-,0.04,Rain,Light Rain,50,2013-10-11 07:54:00
4:18 AM,46.4,46.4,100,30.06,2.0,NE,6.9,-,0.03,Rain,Rain,50,2013-10-11 08:18:00
4:27 AM,48.2,46.4,93,30.06,2.0,NE,6.9,-,0.06,Rain,Rain,50,2013-10-11 08:27:00
4:36 AM,48.2,46.4,93,30.06,1.8,NE,6.9,-,0.08,Rain,Rain,40,2013-10-11 08:36:00
4:46 AM,48.2,46.4,93,30.06,2.5,NNE,9.2,-,0.10,Rain,Rain,30,2013-10-11 08:46:00
4:50 AM,48.2,46.4,93,30.06,3.0,NNE,9.2,-,0.10,Rain,Light Rain,30,2013-10-11 08:50:00
4:54 AM,48.0,46.9,96,30.07,4.0,NNE,8.1,-,0.10,Rain,Light Rain,30,2013-10-11 08:54:00
5:12 AM,48.2,48.2,100,30.06,10.0,NE,8.1,-,0.00,Rain,Light Rain,40,2013-10-11 09:12:00
5:21 AM,48.2,46.4,93,30.06,10.0,NE,9.2,-,0.00,,Overcast,40,2013-10-11 09:21:00
5:54 AM,48.0,46.9,96,30.09,6.0,ENE,10.4,-,0.00,Rain,Light Rain,60,2013-10-11 09:54:00
6:08 AM,48.2,46.4,93,30.06,1.8,NE,8.1,-,0.01,Rain,Light Rain,50,2013-10-11 10:08:00
6:52 AM,46.4,46.4,100,30.07,3.0,ENE,11.5,-,0.05,Rain,Rain,60,2013-10-11 10:52:00
6:53 AM,46.9,46.9,100,30.09,3.0,NE,10.4,-,0.05,Rain,Rain,50,2013-10-11 10:53:00
7:02 AM,46.4,46.4,100,30.07,3.0,NE,10.4,-,0.02,Rain,Rain,50,2013-10-11 11:02:00
7:11 AM,46.4,46.4,100,30.07,3.0,NE,11.5,-,0.03,Rain,Light Rain,50,2013-10-11 11:11:00
7:25 AM,46.4,46.4,100,30.07,2.5,ENE,8.1,16.1,0.05,Rain,Light Rain,60,2013-10-11 11:25:00
7:31 AM,46.4,46.4,100,30.06,1.2,NE,10.4,-,0.05,Rain,Light Rain,50,2013-10-11 11:31:00
7:41 AM,46.4,46.4,100,30.06,3.0,NE,11.5,-,0.07,Rain,Light Rain,50,2013-10-11 11:41:00
7:52 AM,46.4,46.4,100,30.06,2.0,ENE,13.8,19.6,0.13,Rain,Heavy Rain,60,2013-10-11 11:52:00
7:54 AM,46.9,46.9,100,30.09,1.8,NE,12.7,19.6,0.15,Rain,Heavy Rain,50,2013-10-11 11:54:00
8:01 AM,46.4,46.4,100,30.06,0.8,NE,12.7,18.4,0.10,Rain,Heavy Rain,50,2013-10-11 12:01:00
8:08 AM,46.4,46.4,100,30.07,1.0,NE,10.4,20.7,0.13,Rain,Heavy Rain,50,2013-10-11 12:08:00
8:15 AM,48.2,46.4,93,30.07,3.0,NE,15.0,20.7,0.14,Rain,Light Rain,50,2013-10-11 12:15:00
8:28 AM,48.2,46.4,93,30.07,1.5,NE,12.7,-,0.20,Rain,Rain,50,2013-10-11 12:28:00
8:51 AM,48.2,48.2,100,30.07,3.0,NE,10.4,-,0.31,Rain,Light Rain,50,2013-10-11 12:51:00
8:54 AM,48.0,48.0,100,30.10,3.0,NE,8.1,-,0.32,Rain,Rain,50,2013-10-11 12:54:00
9:01 AM,48.2,48.2,100,30.08,3.0,NE,11.5,17.3,0.01,Rain,Light Rain,50,2013-10-11 13:01:00
9:54 AM,48.0,48.0,100,30.12,5.0,NE,12.7,19.6,0.05,Rain,Light Rain,50,2013-10-11 13:54:00
10:10 AM,48.2,48.2,100,30.09,4.0,ENE,8.1,16.1,0.02,Rain,Light Rain,60,2013-10-11 14:10:00
10:21 AM,48.2,48.2,100,30.10,3.0,ENE,10.4,-,0.03,Rain,Light Rain,60,2013-10-11 14:21:00
10:29 AM,48.2,48.2,100,30.10,1.8,NE,10.4,-,0.04,Rain,Rain,50,2013-10-11 14:29:00
10:40 AM,48.2,48.2,100,30.09,3.0,NE,10.4,19.6,0.05,Rain,Light Rain,50,2013-10-11 14:40:00
10:54 AM,48.9,48.0,97,30.12,3.0,ENE,11.5,18.4,0.06,Rain,Rain,60,2013-10-11 14:54:00
11:45 AM,50.0,48.2,94,30.10,1.8,NE,6.9,-,0.02,Rain,Light Rain,50,2013-10-11 15:45:00
11:54 AM,50.0,48.9,96,30.12,1.5,ENE,10.4,-,0.02,Rain,Light Rain,60,2013-10-11 15:54:00
12:08 PM,50.0,50.0,100,30.09,2.5,NE,10.4,-,0.01,Rain,Rain,50,2013-10-11 16:08:00
12:22 PM,50.0,50.0,100,30.09,3.0,NE,9.2,-,0.02,Rain,Light Rain,50,2013-10-11 16:22:00
12:32 PM,50.0,50.0,100,30.09,1.8,ENE,10.4,-,0.02,Rain,Light Rain,60,2013-10-11 16:32:00
12:46 PM,51.8,50.0,94,30.09,3.0,ENE,10.4,-,0.02,Rain,Light Rain,60,2013-10-11 16:46:00
12:54 PM,51.1,50.0,96,30.10,1.8,NE,9.2,-,0.02,Rain,Light Rain,50,2013-10-11 16:54:00
1:29 PM,51.8,51.8,100,30.08,0.8,NE,10.4,-,0.00,Rain,Light Rain,50,2013-10-11 17:29:00
1:54 PM,52.0,52.0,100,30.09,0.5,NE,12.7,-,0.01,Fog,Fog,50,2013-10-11 17:54:00
2:15 PM,51.8,51.8,100,30.07,2.0,NE,9.2,-,N/A,,Overcast,50,2013-10-11 18:15:00
2:31 PM,53.6,53.6,100,30.07,4.0,NE,10.4,-,N/A,,Overcast,40,2013-10-11 18:31:00
2:54 PM,54.0,53.1,97,30.08,4.0,NE,6.9,-,0.00,Rain,Light Rain,40,2013-10-11 18:54:00
3:51 PM,55.4,53.6,94,30.06,10.0,ENE,9.2,-,0.00,Rain,Light Rain,60,2013-10-11 19:51:00
3:54 PM,55.0,54.0,96,30.08,10.0,ENE,11.5,-,0.00,Rain,Light Rain,60,2013-10-11 19:54:00
4:10 PM,55.4,53.6,94,30.06,10.0,ENE,11.5,-,0.00,Rain,Light Rain,60,2013-10-11 20:10:00
4:26 PM,55.4,53.6,94,30.07,10.0,NE,8.1,-,0.00,Rain,Light Rain,50,2013-10-11 20:26:00
4:54 PM,55.0,54.0,96,30.08,10.0,NE,9.2,-,0.00,Rain,Light Rain,50,2013-10-11 20:54:00
5:04 PM,55.4,53.6,94,30.07,10.0,NE,9.2,-,0.00,Rain,Light Rain,50,2013-10-11 21:04:00
5:54 PM,54.0,54.0,100,30.09,5.0,NE,9.2,-,0.01,Rain,Light Rain,50,2013-10-11 21:54:00
6:27 PM,53.6,53.6,100,30.09,1.8,NE,11.5,-,0.02,Rain,Light Rain,50,2013-10-11 22:27:00
6:54 PM,53.1,53.1,100,30.11,1.8,NE,9.2,-,0.05,Rain,Light Rain,50,2013-10-11 22:54:00
7:11 PM,53.6,53.6,100,30.10,2.5,NE,9.2,-,0.02,Rain,Light Rain,50,2013-10-11 23:11:00
7:22 PM,51.8,51.8,100,30.10,0.8,ENE,8.1,-,0.02,Rain,Light Rain,60,2013-10-11 23:22:00
7:35 PM,51.8,51.8,100,30.10,0.2,NE,6.9,-,0.02,Fog,Fog,50,2013-10-11 23:35:00
7:43 PM,51.8,51.8,100,30.10,0.2,NE,10.4,-,0.02,Fog,Fog,50,2013-10-11 23:43:00
7:52 PM,51.8,51.8,100,30.10,1.0,NE,9.2,-,0.02,,Mist,50,2013-10-11 23:52:00
7:54 PM,52.0,52.0,100,30.12,1.5,NE,8.1,-,0.02,,Overcast,50,2013-10-11 23:54:00
7:56 PM,51.8,51.8,100,30.10,3.0,ENE,8.1,-,N/A,,Overcast,60,2013-10-11 23:56:00
8:28 PM,51.8,51.8,100,30.10,1.8,NE,9.2,-,N/A,,Overcast,50,2013-10-12 00:28:00
8:54 PM,51.1,51.1,100,30.12,2.0,ENE,8.1,-,N/A,,Overcast,60,2013-10-12 00:54:00
9:10 PM,51.8,51.8,100,30.10,7.0,NE,9.2,-,N/A,,Overcast,50,2013-10-12 01:10:00
9:39 PM,51.8,51.8,100,30.10,10.0,NE,10.4,-,N/A,,Overcast,50,2013-10-12 01:39:00
9:54 PM,51.1,50.0,96,30.12,10.0,ENE,6.9,-,N/A,,Overcast,60,2013-10-12 01:54:00
10:54 PM,51.1,50.0,96,30.12,10.0,ENE,4.6,-,N/A,,Overcast,70,2013-10-12 02:54:00
11:08 PM,51.8,50.0,94,30.10,10.0,ENE,6.9,-,N/A,,Overcast,60,2013-10-12 03:08:00
11:54 PM,52.0,50.0,93,30.11,10.0,ENE,6.9,-,N/A,,Overcast,60,2013-10-12 03:54:00